Stations météo

réclame
Mon MeteoGroup
Treviso/Istrana, Italie (16098): Température de l'air & dewpoint: 17.10.2018 07:00:00 - 23.10.2018 07:00:00 (CEST)Treviso/Istrana, Italie (16098): Vitesse du vent: 17.10.2018 07:00:00 - 23.10.2018 07:00:00 (CEST)Treviso/Istrana, Italie (16098): Direction du vent: 17.10.2018 07:00:00 - 23.10.2018 07:00:00 (CEST)Treviso/Istrana, Italie (16098): reduced air pressure: 17.10.2018 07:00:00 - 23.10.2018 07:00:00 (CEST)Treviso/Istrana, Italie (16098): visibility: 17.10.2018 07:00:00 - 23.10.2018 07:00:00 (CEST)
Date & Time tt [°C] td [°C] ff [km/h] ff [knt] dd ppp [hPa] vv [km]
23.10.2018 07:00:00 8,0 6,8 5 3 N 1024,4 10
23.10.2018 06:00:00 8,0 6,5 9 5 N 1024,2 10
23.10.2018 05:00:00 8,0 6,5 9 5 N 1024,2 10
23.10.2018 04:00:00 10,0 8,4 5 3 W 1024,1 10
23.10.2018 03:00:00 11,0 9,1 8 4 NNW 1023,8 10
23.10.2018 02:00:00 11,0 9,1 0 0 N 1023,8 10
23.10.2018 01:00:00 11,0 9,1 5 3 N 1023,9 10
23.10.2018 00:00:00 11,0 9,1 5 3 N 1024,7 10
22.10.2018 23:00:00 11,0 9,1 5 3 N 1023,8 10
22.10.2018 22:00:00 11,0 9,4 8 4 N 1023,2 10
22.10.2018 21:00:00 12,0 9,7 5 3 N 1022,1 10
22.10.2018 20:00:00 14,4 9,4 0 0 N 1021,2 15
22.10.2018 19:00:00 15,0 8,5 5 3 SSW 1021,0 20
22.10.2018 18:00:00 18,0 4,9 5 3 SE 1020,1 20
22.10.2018 17:00:00 19,0 4,4 4 2 SE 1020,2 25
22.10.2018 16:00:00 19,0 4,4 5 3 E 1020,0 25
22.10.2018 15:00:00 19,6 4,9 4 2 NNE 1020,6 25
22.10.2018 14:00:00 19,0 4,4 8 4 ESE 1021,2 25
22.10.2018 13:00:00 18,6 3,6 4 2 ESE 1021,6 25
22.10.2018 12:00:00 16,8 2,4 9 5 E 1022,2 25
22.10.2018 11:00:00 16,4 7,1 2 1 WNW 1022,3 25
22.10.2018 10:00:00 14,6 6,9 4 2 N 1022,3 25
22.10.2018 09:00:00 10,0 6,4 8 4 N 1022,1 25
22.10.2018 08:00:00 8,8 6,3 9 5 N 1022,5 25
22.10.2018 07:00:00 8,4 6,0 5 3 ESE 1022,5 25
22.10.2018 06:00:00 8,4 6,0 8 4 N 1022,6 20
22.10.2018 05:00:00 8,2 5,8 9 5 N 1023,6 20
22.10.2018 04:00:00 7,6 6,2 8 4 N 1022,9 20
22.10.2018 03:00:00 7,8 6,7 4 2 NE 1023,6 20
22.10.2018 02:00:00 8,0 7,3 5 3 NE 1023,8 20
22.10.2018 01:00:00 8,4 7,7 5 3 N 1023,7 20
22.10.2018 00:00:00 9,4 8,3 4 2 NNE 1023,9 25
21.10.2018 23:00:00 10,2 8,1 4 2 W 1023,9 25
21.10.2018 22:00:00 11,4 8,1 4 2 N 1023,8 25
21.10.2018 21:00:00 12,4 9,2 9 5 NNW 1023,6 15
21.10.2018 20:00:00 12,8 9,4 8 4 NNW 1023,1 10
21.10.2018 19:00:00 13,4 10,0 8 4 NNW 1022,5 15
21.10.2018 18:00:00 13,4 10,2 9 5 NNW 1021,9 13
21.10.2018 17:00:00 14,0 9,7 16 9 E 1021,7 10
21.10.2018 16:00:00 16,0 9,2 31 17 ESE 1020,8 10
21.10.2018 15:00:00 19,4 12,2 34 18 ESE 1019,8 10
21.10.2018 14:00:00 20,0 12,7 22 12 E 1019,8 10
21.10.2018 13:00:00 20,0 13,5 9 5 E 1019,8 12
21.10.2018 12:00:00 19,4 13,4 15 8 E 1020,6 10
21.10.2018 11:00:00 18,0 12,2 15 8 E 1021,0 10
21.10.2018 10:00:00 17,0 13,0 11 6 ENE 1021,1 10
21.10.2018 09:00:00 16,0 13,7 9 5 ENE 1020,8 10
21.10.2018 08:00:00 16,4 13,7 9 5 ENE 1020,2 9
21.10.2018 07:00:00 15,4 12,7 9 5 NE 1020,6 10
21.10.2018 06:00:00 15,0 12,3 0 0 N 1020,9 10
21.10.2018 05:00:00 15,0 12,5 0 0 N 1021,9 10
21.10.2018 04:00:00 15,0 12,5 0 0 N 1022,1 10
21.10.2018 03:00:00 15,0 12,5 4 2 NNE 1021,9 10
21.10.2018 02:00:00 15,0 12,5 0 0 N 1022,7 10
21.10.2018 01:00:00 16,0 13,7 0 0 N 1022,7 10
21.10.2018 00:00:00 16,0 13,8 0 0 N 1022,3 10
20.10.2018 23:00:00 16,0 13,1 8 4 N 1022,3 10
20.10.2018 22:00:00 16,0 13,8 5 3 N 1022,7 10
20.10.2018 21:00:00 16,4 14,2 9 5 NNW 1022,3 10
20.10.2018 20:00:00 17,6 15,0 2 1 WNW 1022,3 10
20.10.2018 19:00:00 18,8 14,5 2 1 SW 1022,2 10
20.10.2018 18:00:00 21,4 14,1 4 2 WSW 1022,1 10
20.10.2018 17:00:00 22,0 13,1 5 3 SW 1022,2 11
20.10.2018 16:00:00 22,6 13,1 5 3 S 1022,5 11
20.10.2018 15:00:00 22,6 12,5 5 3 ESE 1022,9 11
20.10.2018 14:00:00 21,8 12,7 9 5 E 1023,4 10
20.10.2018 13:00:00 21,0 13,2 9 5 ESE 1023,6 10
20.10.2018 12:00:00 20,0 13,7 8 4 E 1023,7 10
20.10.2018 11:00:00 19,4 13,4 11 6 E 1023,5 10
20.10.2018 10:00:00 18,0 14,1 9 5 ENE 1023,2 10
20.10.2018 09:00:00 16,4 13,9 4 2 NNE 1022,8 10
20.10.2018 08:00:00 17,0 13,7 9 5 NE 1022,0 10
20.10.2018 07:00:00 16,0 13,5 8 4 NNE 1021,7 15
20.10.2018 06:00:00 15,4 11,2 9 5 NNE 1021,1 15
20.10.2018 05:00:00 15,4 11,2 9 5 N 1020,9 15
20.10.2018 04:00:00 15,6 10,2 5 3 N 1021,0 15
20.10.2018 03:00:00 16,2 11,6 9 5 NNE 1020,8 15
20.10.2018 02:00:00 16,2 12,6 5 3 N 1021,2 15
20.10.2018 01:00:00 16,6 12,4 9 5 NE 1020,8 15
20.10.2018 00:00:00 16,6 11,7 9 5 NE 1020,7 15
19.10.2018 23:00:00 17,0 11,9 5 3 NE 1019,9 15
19.10.2018 22:00:00 17,4 12,7 9 5 N 1019,1 15
19.10.2018 21:00:00 17,8 14,1 9 5 NNE 1019,5 15
19.10.2018 20:00:00 17,8 14,3 5 3 N 1019,1 10
19.10.2018 19:00:00 20,4 14,1 0 0 N 1018,2 10
19.10.2018 18:00:00 22,4 12,7 5 3 SE 1017,8 12
19.10.2018 17:00:00 23,2 11,3 9 5 E 1017,8 15
19.10.2018 16:00:00 23,2 11,3 11 6 E 1017,7 15
19.10.2018 15:00:00 23,4 11,5 11 6 E 1018,5 15
19.10.2018 14:00:00 23,4 11,5 9 5 ESE 1018,6 15
19.10.2018 13:00:00 23,0 11,1 13 7 ENE 1018,5 15
19.10.2018 12:00:00 22,4 12,7 15 8 ENE 1018,2 15
19.10.2018 11:00:00 21,8 14,2 15 8 ENE 1018,5 15
19.10.2018 10:00:00 19,4 14,7 8 4 ENE 1018,1 15
19.10.2018 09:00:00 16,0 14,0 9 5 NNE 1017,9 10
19.10.2018 08:00:00 15,8 12,4 8 4 N 1017,0 9
19.10.2018 07:00:00 16,0 12,5 8 4 WSW 1016,6 8
19.10.2018 06:00:00 16,0 12,5 11 6 N 1016,6 8
19.10.2018 05:00:00 15,2 12,7 9 5 N 1017,5 8
19.10.2018 04:00:00 15,4 12,9 8 4 N 1017,2 8
19.10.2018 03:00:00 15,3 13,4 4 2 N 1017,9 8
19.10.2018 02:00:00 15,0 11,2 5 3 N 1017,7 8
19.10.2018 01:00:00 16,0 14,0 9 5 NNE 1017,7 8
19.10.2018 00:00:00 16,0 14,2 8 4 NNE 1016,4 8
18.10.2018 23:00:00 16,4 14,8 9 5 NNE 1016,3 10
18.10.2018 22:00:00 17,0 15,4 2 1 E 1015,8 10
18.10.2018 21:00:00 17,0 15,0 4 2 ENE 1015,8 10
18.10.2018 20:00:00 19,2 16,3 0 0 N 1015,8 10
18.10.2018 19:00:00 20,4 15,4 0 0 N 1015,1 10
18.10.2018 18:00:00 23,0 15,6 0 0 N 1015,1 10
18.10.2018 17:00:00 24,0 14,7 5 3 ESE 1015,1 12
18.10.2018 16:00:00 24,4 15,9 5 3 E 1015,6 12
18.10.2018 15:00:00 24,6 14,7 8 4 E 1015,7 15
18.10.2018 14:00:00 24,2 14,9 5 3 ENE 1015,9 15
18.10.2018 13:00:00 23,8 14,2 8 4 ESE 1016,7 20
18.10.2018 12:00:00 23,0 14,8 4 2 NNE 1016,8 15
18.10.2018 11:00:00 21,4 15,0 0 0 N 1016,9 15
18.10.2018 10:00:00 18,2 15,6 0 0 N 1017,1 15
18.10.2018 09:00:00 16,4 15,1 0 0 N 1016,7 10
18.10.2018 08:00:00 15,0 13,7 0 0 N 1016,2 13
18.10.2018 07:00:00 15,4 13,8 5 3 SW 1016,4 11
18.10.2018 06:00:00 15,4 13,6 11 6 NNW 1016,5 9
18.10.2018 05:00:00 15,0 13,4 0 0 N 1016,5 9
18.10.2018 04:00:00 16,0 13,8 5 3 NNW 1016,9 9
18.10.2018 03:00:00 16,0 13,1 8 4 N 1017,4 8
18.10.2018 02:00:00 17,0 14,8 9 5 NNW 1017,9 8
18.10.2018 01:00:00 17,4 15,0 9 5 NNW 1018,3 8
18.10.2018 00:00:00 18,0 15,6 5 3 NNW 1018,4 8
17.10.2018 23:00:00 18,0 16,2 5 3 NNW 1018,9 8
17.10.2018 22:00:00 18,6 16,8 8 4 NNW 1018,6 8
17.10.2018 21:00:00 19,0 17,0 0 0 N 1018,2 8
17.10.2018 20:00:00 19,0 16,4 5 3 ENE 1017,8 9
17.10.2018 19:00:00 19,0 16,0 8 4 NE 1017,7 10
17.10.2018 18:00:00 19,6 15,7 8 4 NE 1017,8 10
17.10.2018 17:00:00 20,4 15,2 8 4 ENE 1017,9 10
17.10.2018 16:00:00 20,8 15,6 9 5 E 1018,1 15
17.10.2018 15:00:00 20,6 14,9 11 6 E 1018,4 15
17.10.2018 14:00:00 20,8 14,2 15 8 E 1019,0 12
17.10.2018 13:00:00 20,8 14,0 9 5 ENE 1019,5 15
17.10.2018 12:00:00 19,6 15,5 8 4 E 1019,5 15
17.10.2018 11:00:00 19,4 14,9 5 3 N 1019,5 15
17.10.2018 10:00:00 18,0 14,1 8 4 N 1019,5 15
17.10.2018 09:00:00 17,0 13,9 9 5 N 1019,5 15
17.10.2018 08:00:00 16,8 15,8 5 3 NNW 1019,3 15
17.10.2018 07:00:00 17,0 15,4 4 2 W 1019,5 10

tt = Température de l'air
td = dewpoint
ff = Vitesse du vent
dd = Direction du vent
ppp = reduced air pressure
vv = visibility

stations d'obs. à proximité